Location: Unspecified
(0.0000°N, 0.0000°E)
Time: 06:01:32
(UTC+00:00)

Tiros 1 despin weight - Pass Details

Date: 05 October 2020
Orbit: 594 x 641 km, 48.2° (Epoch: 28 October)

Event Time Altitude Azimuth Distance (km) Brightness Sun altitude
Rises 07:12:55 0° 253° (WSW) 2,824 ? 21.1°
Reaches altitude 10° 07:16:11 10° 278° (W) 1,916 ? 21.9°
Maximum altitude 07:18:31 14° 310° (NW) 1,660 ? 22.5°
Drops below altitude 10° 07:20:50 10° 343° (NNW) 1,912 ? 23.0°
Sets 07:24:06 0° 8° (N) 2,812 ? 23.8°
